owner,sensor,date,latitude,longitude,vertical_datum,sea_water_temperature,qcFlag 
ENP,ioos.station.NOAA.NDBC:JKYF1:1,2019-04-01T00:00:00Z,25.0530,-80.9040,1.0,26.81,11111222 
ENP,ioos.station.NOAA.NDBC:JKYF1:1,2019-04-01T01:00:00Z,25.0530,-80.9040,1.0,26.83,11111222 
ENP,ioos.station.NOAA.NDBC:JKYF1:1,2019-04-01T02:00:00Z,25.0530,-80.9040,1.0,26.47,11111222 
ENP,ioos.station.NOAA.NDBC:JKYF1:1,2019-04-01T03:00:00Z,25.0530,-80.9040,1.0,25.9,11111222 
ENP,ioos.station.NOAA.NDBC:JKYF1:1,2019-04-01T04:00:00Z,25.0530,-80.9040,1.0,25.95,11111222 
ENP,ioos.station.NOAA.NDBC:JKYF1:1,2019-04-01T05:00:00Z,25.0530,-80.9040,1.0,25.2,11111222 
ENP,ioos.station.NOAA.NDBC:JKYF1:1,2019-04-01T06:00:00Z,25.0530,-80.9040,1.0,24.88,11111222 
ENP,ioos.station.NOAA.NDBC:JKYF1:1,2019-04-01T07:00:00Z,25.0530,-80.9040,1.0,24.79,11111222 
ENP,ioos.station.NOAA.NDBC:JKYF1:1,2019-04-01T08:00:00Z,25.0530,-80.9040,1.0,24.64,11111222 
ENP,ioos.station.NOAA.NDBC:JKYF1:1,2019-04-01T09:00:00Z,25.0530,-80.9040,1.0,24.52,11111222 
ENP,ioos.station.NOAA.NDBC:JKYF1:1,2019-04-01T10:00:00Z,25.0530,-80.9040,1.0,24.37,11111222 
ENP,ioos.station.NOAA.NDBC:JKYF1:1,2019-04-01T11:00:00Z,25.0530,-80.9040,1.0,24.17,11111222 
ENP,ioos.station.NOAA.NDBC:JKYF1:1,2019-04-01T12:00:00Z,25.0530,-80.9040,1.0,23.95,11111222 
ENP,ioos.station.NOAA.NDBC:JKYF1:1,2019-04-01T13:00:00Z,25.0530,-80.9040,1.0,23.88,11111222 
ENP,ioos.station.NOAA.NDBC:JKYF1:1,2019-04-01T14:00:00Z,25.0530,-80.9040,1.0,24.07,11111222 
ENP,ioos.station.NOAA.NDBC:JKYF1:1,2019-04-01T15:00:00Z,25.0530,-80.9040,1.0,24.45,11111222 
ENP,ioos.station.NOAA.NDBC:JKYF1:1,2019-04-01T16:00:00Z,25.0530,-80.9040,1.0,25.38,11111222 
ENP,ioos.station.NOAA.NDBC:JKYF1:1,2019-04-01T17:00:00Z,25.0530,-80.9040,1.0,25.8,11111222 
ENP,ioos.station.NOAA.NDBC:JKYF1:1,2019-04-01T18:00:00Z,25.0530,-80.9040,1.0,25.92,11111222 
ENP,ioos.station.NOAA.NDBC:JKYF1:1,2019-04-01T19:00:00Z,25.0530,-80.9040,1.0,26.16,11111222 
ENP,ioos.station.NOAA.NDBC:JKYF1:1,2019-04-01T20:00:00Z,25.0530,-80.9040,1.0,26.36,11111222 
ENP,ioos.station.NOAA.NDBC:JKYF1:1,2019-04-01T21:00:00Z,25.0530,-80.9040,1.0,26.73,11111222 
ENP,ioos.station.NOAA.NDBC:JKYF1:1,2019-04-01T22:00:00Z,25.0530,-80.9040,1.0,26.97,11111222 
ENP,ioos.station.NOAA.NDBC:JKYF1:1,2019-04-01T23:00:00Z,25.0530,-80.9040,1.0,27.12,11111222 
ENP,ioos.station.NOAA.NDBC:JKYF1:1,2019-04-02T00:00:00Z,25.0530,-80.9040,1.0,27.21,11111222 
ENP,ioos.station.NOAA.NDBC:JKYF1:1,2019-04-02T01:00:00Z,25.0530,-80.9040,1.0,27.18,11111222 
ENP,ioos.station.NOAA.NDBC:JKYF1:1,2019-04-02T03:00:00Z,25.0530,-80.9040,1.0,26.8,11111222 
ENP,ioos.station.NOAA.NDBC:JKYF1:1,2019-04-02T04:00:00Z,25.0530,-80.9040,1.0,26.39,11111222 
ENP,ioos.station.NOAA.NDBC:JKYF1:1,2019-04-02T05:00:00Z,25.0530,-80.9040,1.0,26.6,11111222 
ENP,ioos.station.NOAA.NDBC:JKYF1:1,2019-04-02T06:00:00Z,25.0530,-80.9040,1.0,26.14,11111222 
ENP,ioos.station.NOAA.NDBC:JKYF1:1,2019-04-02T07:00:00Z,25.0530,-80.9040,1.0,26.11,11111222 
ENP,ioos.station.NOAA.NDBC:JKYF1:1,2019-04-02T08:00:00Z,25.0530,-80.9040,1.0,26.07,11111222 
ENP,ioos.station.NOAA.NDBC:JKYF1:1,2019-04-02T09:00:00Z,25.0530,-80.9040,1.0,25.94,11111222 
ENP,ioos.station.NOAA.NDBC:JKYF1:1,2019-04-02T10:00:00Z,25.0530,-80.9040,1.0,25.79,11111222 
ENP,ioos.station.NOAA.NDBC:JKYF1:1,2019-04-02T11:00:00Z,25.0530,-80.9040,1.0,25.54,11111222 
ENP,ioos.station.NOAA.NDBC:JKYF1:1,2019-04-02T12:00:00Z,25.0530,-80.9040,1.0,25.34,11111222 
ENP,ioos.station.NOAA.NDBC:JKYF1:1,2019-04-02T13:00:00Z,25.0530,-80.9040,1.0,25.31,11111222 
ENP,ioos.station.NOAA.NDBC:JKYF1:1,2019-04-02T14:00:00Z,25.0530,-80.9040,1.0,25.52,11111222 
ENP,ioos.station.NOAA.NDBC:JKYF1:1,2019-04-02T15:00:00Z,25.0530,-80.9040,1.0,25.89,11111222 
ENP,ioos.station.NOAA.NDBC:JKYF1:1,2019-04-02T16:00:00Z,25.0530,-80.9040,1.0,26.65,11111222 
ENP,ioos.station.NOAA.NDBC:JKYF1:1,2019-04-02T17:00:00Z,25.0530,-80.9040,1.0,27.2,11111222 
ENP,ioos.station.NOAA.NDBC:JKYF1:1,2019-04-02T18:00:00Z,25.0530,-80.9040,1.0,27.1,11111222 
ENP,ioos.station.NOAA.NDBC:JKYF1:1,2019-04-02T19:00:00Z,25.0530,-80.9040,1.0,27.46,11111222 
ENP,ioos.station.NOAA.NDBC:JKYF1:1,2019-04-02T20:00:00Z,25.0530,-80.9040,1.0,27.57,11111222 
ENP,ioos.station.NOAA.NDBC:JKYF1:1,2019-04-02T21:00:00Z,25.0530,-80.9040,1.0,27.73,11111222 
ENP,ioos.station.NOAA.NDBC:JKYF1:1,2019-04-02T22:00:00Z,25.0530,-80.9040,1.0,27.9,11111222 
ENP,ioos.station.NOAA.NDBC:JKYF1:1,2019-04-02T23:00:00Z,25.0530,-80.9040,1.0,27.81,11111222 
ENP,ioos.station.NOAA.NDBC:JKYF1:1,2019-04-03T00:00:00Z,25.0530,-80.9040,1.0,27.64,11111222 
ENP,ioos.station.NOAA.NDBC:JKYF1:1,2019-04-03T01:00:00Z,25.0530,-80.9040,1.0,27.4,11111222 
ENP,ioos.station.NOAA.NDBC:JKYF1:1,2019-04-03T02:00:00Z,25.0530,-80.9040,1.0,27.06,11111222 
ENP,ioos.station.NOAA.NDBC:JKYF1:1,2019-04-03T03:00:00Z,25.0530,-80.9040,1.0,26.8,11111222 
ENP,ioos.station.NOAA.NDBC:JKYF1:1,2019-04-03T04:00:00Z,25.0530,-80.9040,1.0,26.61,11111222 
ENP,ioos.station.NOAA.NDBC:JKYF1:1,2019-04-03T05:00:00Z,25.0530,-80.9040,1.0,26.6,11111222 
ENP,ioos.station.NOAA.NDBC:JKYF1:1,2019-04-03T06:00:00Z,25.0530,-80.9040,1.0,26.68,11111222 
ENP,ioos.station.NOAA.NDBC:JKYF1:1,2019-04-03T07:00:00Z,25.0530,-80.9040,1.0,26.68,11111222 
ENP,ioos.station.NOAA.NDBC:JKYF1:1,2019-04-03T08:00:00Z,25.0530,-80.9040,1.0,26.69,11111222 
ENP,ioos.station.NOAA.NDBC:JKYF1:1,2019-04-03T09:00:00Z,25.0530,-80.9040,1.0,26.57,11111222 
ENP,ioos.station.NOAA.NDBC:JKYF1:1,2019-04-03T10:00:00Z,25.0530,-80.9040,1.0,26.34,11111222 
ENP,ioos.station.NOAA.NDBC:JKYF1:1,2019-04-03T11:00:00Z,25.0530,-80.9040,1.0,26.01,11111222 
ENP,ioos.station.NOAA.NDBC:JKYF1:1,2019-04-03T12:00:00Z,25.0530,-80.9040,1.0,25.7,11111222 
ENP,ioos.station.NOAA.NDBC:JKYF1:1,2019-04-03T13:00:00Z,25.0530,-80.9040,1.0,25.45,11111222 
ENP,ioos.station.NOAA.NDBC:JKYF1:1,2019-04-03T14:00:00Z,25.0530,-80.9040,1.0,25.49,11111222 
ENP,ioos.station.NOAA.NDBC:JKYF1:1,2019-04-03T15:00:00Z,25.0530,-80.9040,1.0,25.74,11111222 
ENP,ioos.station.NOAA.NDBC:JKYF1:1,2019-04-03T16:00:00Z,25.0530,-80.9040,1.0,26.38,11111222 
ENP,ioos.station.NOAA.NDBC:JKYF1:1,2019-04-03T17:00:00Z,25.0530,-80.9040,1.0,27.2,11111222 
ENP,ioos.station.NOAA.NDBC:JKYF1:1,2019-04-03T18:00:00Z,25.0530,-80.9040,1.0,27.67,11111222 
ENP,ioos.station.NOAA.NDBC:JKYF1:1,2019-04-03T19:00:00Z,25.0530,-80.9040,1.0,27.63,11111222 
ENP,ioos.station.NOAA.NDBC:JKYF1:1,2019-04-03T20:00:00Z,25.0530,-80.9040,1.0,27.64,11111222 
ENP,ioos.station.NOAA.NDBC:JKYF1:1,2019-04-03T21:00:00Z,25.0530,-80.9040,1.0,27.78,11111222 
ENP,ioos.station.NOAA.NDBC:JKYF1:1,2019-04-03T22:00:00Z,25.0530,-80.9040,1.0,27.99,11111222 
ENP,ioos.station.NOAA.NDBC:JKYF1:1,2019-04-03T23:00:00Z,25.0530,-80.9040,1.0,28.41,11111222 
ENP,ioos.station.NOAA.NDBC:JKYF1:1,2019-04-04T00:00:00Z,25.0530,-80.9040,1.0,28.42,11111222 
ENP,ioos.station.NOAA.NDBC:JKYF1:1,2019-04-04T01:00:00Z,25.0530,-80.9040,1.0,27.7,11111222 
ENP,ioos.station.NOAA.NDBC:JKYF1:1,2019-04-04T02:00:00Z,25.0530,-80.9040,1.0,26.94,11111222 
ENP,ioos.station.NOAA.NDBC:JKYF1:1,2019-04-04T03:00:00Z,25.0530,-80.9040,1.0,26.3,11111222 
ENP,ioos.station.NOAA.NDBC:JKYF1:1,2019-04-04T04:00:00Z,25.0530,-80.9040,1.0,25.8,11111222 
ENP,ioos.station.NOAA.NDBC:JKYF1:1,2019-04-04T05:00:00Z,25.0530,-80.9040,1.0,25.52,11111222 
ENP,ioos.station.NOAA.NDBC:JKYF1:1,2019-04-04T06:00:00Z,25.0530,-80.9040,1.0,25.68,11111222 
ENP,ioos.station.NOAA.NDBC:JKYF1:1,2019-04-04T07:00:00Z,25.0530,-80.9040,1.0,26.15,11111222 
ENP,ioos.station.NOAA.NDBC:JKYF1:1,2019-04-04T08:00:00Z,25.0530,-80.9040,1.0,25.97,11111222 
ENP,ioos.station.NOAA.NDBC:JKYF1:1,2019-04-04T09:00:00Z,25.0530,-80.9040,1.0,25.8,11111222 
ENP,ioos.station.NOAA.NDBC:JKYF1:1,2019-04-04T10:00:00Z,25.0530,-80.9040,1.0,25.26,11111222 
ENP,ioos.station.NOAA.NDBC:JKYF1:1,2019-04-04T11:00:00Z,25.0530,-80.9040,1.0,24.63,11111222 
ENP,ioos.station.NOAA.NDBC:JKYF1:1,2019-04-04T12:00:00Z,25.0530,-80.9040,1.0,24.24,11111222 
ENP,ioos.station.NOAA.NDBC:JKYF1:1,2019-04-04T13:00:00Z,25.0530,-80.9040,1.0,24.09,11111222 
ENP,ioos.station.NOAA.NDBC:JKYF1:1,2019-04-04T14:00:00Z,25.0530,-80.9040,1.0,24.21,11111222 
ENP,ioos.station.NOAA.NDBC:JKYF1:1,2019-04-04T15:00:00Z,25.0530,-80.9040,1.0,24.72,11111222 
ENP,ioos.station.NOAA.NDBC:JKYF1:1,2019-04-04T16:00:00Z,25.0530,-80.9040,1.0,25.48,11111222 
ENP,ioos.station.NOAA.NDBC:JKYF1:1,2019-04-04T17:00:00Z,25.0530,-80.9040,1.0,26.4,11111222 
ENP,ioos.station.NOAA.NDBC:JKYF1:1,2019-04-04T18:00:00Z,25.0530,-80.9040,1.0,27.15,11111222 
ENP,ioos.station.NOAA.NDBC:JKYF1:1,2019-04-04T19:00:00Z,25.0530,-80.9040,1.0,27.12,11111222 
ENP,ioos.station.NOAA.NDBC:JKYF1:1,2019-04-04T20:00:00Z,25.0530,-80.9040,1.0,26.8,11111222 
ENP,ioos.station.NOAA.NDBC:JKYF1:1,2019-04-04T21:00:00Z,25.0530,-80.9040,1.0,26.94,11111222 
ENP,ioos.station.NOAA.NDBC:JKYF1:1,2019-04-04T22:00:00Z,25.0530,-80.9040,1.0,26.96,11111222 
ENP,ioos.station.NOAA.NDBC:JKYF1:1,2019-04-04T23:00:00Z,25.0530,-80.9040,1.0,27.15,11111222 
ENP,ioos.station.NOAA.NDBC:JKYF1:1,2019-04-05T00:00:00Z,25.0530,-80.9040,1.0,27.23,11111222 
ENP,ioos.station.NOAA.NDBC:JKYF1:1,2019-04-05T01:00:00Z,25.0530,-80.9040,1.0,27.62,11111222 
ENP,ioos.station.NOAA.NDBC:JKYF1:1,2019-04-05T02:00:00Z,25.0530,-80.9040,1.0,27.71,11111222 
ENP,ioos.station.NOAA.NDBC:JKYF1:1,2019-04-05T03:00:00Z,25.0530,-80.9040,1.0,27.5,11111222 
ENP,ioos.station.NOAA.NDBC:JKYF1:1,2019-04-05T04:00:00Z,25.0530,-80.9040,1.0,27.09,11111222 
ENP,ioos.station.NOAA.NDBC:JKYF1:1,2019-04-05T05:00:00Z,25.0530,-80.9040,1.0,26.8,11111222 
ENP,ioos.station.NOAA.NDBC:JKYF1:1,2019-04-05T06:00:00Z,25.0530,-80.9040,1.0,26.35,11111222 
ENP,ioos.station.NOAA.NDBC:JKYF1:1,2019-04-05T07:00:00Z,25.0530,-80.9040,1.0,26.02,11111222 
ENP,ioos.station.NOAA.NDBC:JKYF1:1,2019-04-05T08:00:00Z,25.0530,-80.9040,1.0,25.83,11111222 
ENP,ioos.station.NOAA.NDBC:JKYF1:1,2019-04-05T09:00:00Z,25.0530,-80.9040,1.0,25.75,11111222 
ENP,ioos.station.NOAA.NDBC:JKYF1:1,2019-04-05T10:00:00Z,25.0530,-80.9040,1.0,25.83,11111222 
ENP,ioos.station.NOAA.NDBC:JKYF1:1,2019-04-05T11:00:00Z,25.0530,-80.9040,1.0,25.57,11111222 
ENP,ioos.station.NOAA.NDBC:JKYF1:1,2019-04-05T12:00:00Z,25.0530,-80.9040,1.0,25.38,11111222 
ENP,ioos.station.NOAA.NDBC:JKYF1:1,2019-04-05T13:00:00Z,25.0530,-80.9040,1.0,25.28,11111222 
ENP,ioos.station.NOAA.NDBC:JKYF1:1,2019-04-05T14:00:00Z,25.0530,-80.9040,1.0,25.42,11111222 
ENP,ioos.station.NOAA.NDBC:JKYF1:1,2019-04-05T15:00:00Z,25.0530,-80.9040,1.0,25.76,11111222 
ENP,ioos.station.NOAA.NDBC:JKYF1:1,2019-04-05T16:00:00Z,25.0530,-80.9040,1.0,26.38,11111222 
ENP,ioos.station.NOAA.NDBC:JKYF1:1,2019-04-05T17:00:00Z,25.0530,-80.9040,1.0,27.0,11111222 
ENP,ioos.station.NOAA.NDBC:JKYF1:1,2019-04-05T18:00:00Z,25.0530,-80.9040,1.0,27.86,11111222 
ENP,ioos.station.NOAA.NDBC:JKYF1:1,2019-04-05T19:00:00Z,25.0530,-80.9040,1.0,27.51,11111222 
ENP,ioos.station.NOAA.NDBC:JKYF1:1,2019-04-05T20:00:00Z,25.0530,-80.9040,1.0,27.05,11111222 
ENP,ioos.station.NOAA.NDBC:JKYF1:1,2019-04-05T21:00:00Z,25.0530,-80.9040,1.0,27.18,11111222 
ENP,ioos.station.NOAA.NDBC:JKYF1:1,2019-04-05T22:00:00Z,25.0530,-80.9040,1.0,27.19,11111222 
ENP,ioos.station.NOAA.NDBC:JKYF1:1,2019-04-05T23:00:00Z,25.0530,-80.9040,1.0,27.15,11111222 
ENP,ioos.station.NOAA.NDBC:JKYF1:1,2019-04-06T00:00:00Z,25.0530,-80.9040,1.0,27.01,11111222 
ENP,ioos.station.NOAA.NDBC:JKYF1:1,2019-04-06T01:00:00Z,25.0530,-80.9040,1.0,26.74,11111222 
ENP,ioos.station.NOAA.NDBC:JKYF1:1,2019-04-06T02:00:00Z,25.0530,-80.9040,1.0,26.65,11111222 
ENP,ioos.station.NOAA.NDBC:JKYF1:1,2019-04-06T03:00:00Z,25.0530,-80.9040,1.0,26.5,11111222 
ENP,ioos.station.NOAA.NDBC:JKYF1:1,2019-04-06T04:00:00Z,25.0530,-80.9040,1.0,26.41,11111222 
ENP,ioos.station.NOAA.NDBC:JKYF1:1,2019-04-06T05:00:00Z,25.0530,-80.9040,1.0,26.2,11111222 
ENP,ioos.station.NOAA.NDBC:JKYF1:1,2019-04-06T06:00:00Z,25.0530,-80.9040,1.0,26.02,11111222 
ENP,ioos.station.NOAA.NDBC:JKYF1:1,2019-04-06T07:00:00Z,25.0530,-80.9040,1.0,25.6,11111222 
ENP,ioos.station.NOAA.NDBC:JKYF1:1,2019-04-06T08:00:00Z,25.0530,-80.9040,1.0,25.87,11111222 
ENP,ioos.station.NOAA.NDBC:JKYF1:1,2019-04-06T09:00:00Z,25.0530,-80.9040,1.0,25.99,11111222 
ENP,ioos.station.NOAA.NDBC:JKYF1:1,2019-04-06T10:00:00Z,25.0530,-80.9040,1.0,25.97,11111222 
ENP,ioos.station.NOAA.NDBC:JKYF1:1,2019-04-06T11:00:00Z,25.0530,-80.9040,1.0,25.86,11111222 
ENP,ioos.station.NOAA.NDBC:JKYF1:1,2019-04-06T12:00:00Z,25.0530,-80.9040,1.0,25.74,11111222 
ENP,ioos.station.NOAA.NDBC:JKYF1:1,2019-04-06T13:00:00Z,25.0530,-80.9040,1.0,25.67,11111222 
ENP,ioos.station.NOAA.NDBC:JKYF1:1,2019-04-06T14:00:00Z,25.0530,-80.9040,1.0,25.83,11111222 
ENP,ioos.station.NOAA.NDBC:JKYF1:1,2019-04-06T15:00:00Z,25.0530,-80.9040,1.0,26.27,11111222 
ENP,ioos.station.NOAA.NDBC:JKYF1:1,2019-04-06T16:00:00Z,25.0530,-80.9040,1.0,26.91,11111222 
ENP,ioos.station.NOAA.NDBC:JKYF1:1,2019-04-06T17:00:00Z,25.0530,-80.9040,1.0,27.7,11111222 
ENP,ioos.station.NOAA.NDBC:JKYF1:1,2019-04-06T18:00:00Z,25.0530,-80.9040,1.0,28.41,11111222 
ENP,ioos.station.NOAA.NDBC:JKYF1:1,2019-04-06T19:00:00Z,25.0530,-80.9040,1.0,28.95,11111222 
ENP,ioos.station.NOAA.NDBC:JKYF1:1,2019-04-06T20:00:00Z,25.0530,-80.9040,1.0,28.36,11111222 
ENP,ioos.station.NOAA.NDBC:JKYF1:1,2019-04-06T21:00:00Z,25.0530,-80.9040,1.0,28.05,11111222 
ENP,ioos.station.NOAA.NDBC:JKYF1:1,2019-04-06T22:00:00Z,25.0530,-80.9040,1.0,27.98,11111222 
ENP,ioos.station.NOAA.NDBC:JKYF1:1,2019-04-06T23:00:00Z,25.0530,-80.9040,1.0,28.02,11111222 
ENP,ioos.station.NOAA.NDBC:JKYF1:1,2019-04-07T00:00:00Z,25.0530,-80.9040,1.0,28.1,11111222 
ENP,ioos.station.NOAA.NDBC:JKYF1:1,2019-04-07T01:00:00Z,25.0530,-80.9040,1.0,28.22,11111222 
ENP,ioos.station.NOAA.NDBC:JKYF1:1,2019-04-07T02:00:00Z,25.0530,-80.9040,1.0,28.17,11111222 
ENP,ioos.station.NOAA.NDBC:JKYF1:1,2019-04-07T03:00:00Z,25.0530,-80.9040,1.0,28.1,11111222 
ENP,ioos.station.NOAA.NDBC:JKYF1:1,2019-04-07T04:00:00Z,25.0530,-80.9040,1.0,27.7,11111222 
ENP,ioos.station.NOAA.NDBC:JKYF1:1,2019-04-07T05:00:00Z,25.0530,-80.9040,1.0,27.2,11111222 
ENP,ioos.station.NOAA.NDBC:JKYF1:1,2019-04-07T06:00:00Z,25.0530,-80.9040,1.0,26.83,11111222 
ENP,ioos.station.NOAA.NDBC:JKYF1:1,2019-04-07T07:00:00Z,25.0530,-80.9040,1.0,26.52,11111222 
ENP,ioos.station.NOAA.NDBC:JKYF1:1,2019-04-07T08:00:00Z,25.0530,-80.9040,1.0,26.64,11111222 
ENP,ioos.station.NOAA.NDBC:JKYF1:1,2019-04-07T09:00:00Z,25.0530,-80.9040,1.0,26.57,11111222 
ENP,ioos.station.NOAA.NDBC:JKYF1:1,2019-04-07T10:00:00Z,25.0530,-80.9040,1.0,26.48,11111222 
ENP,ioos.station.NOAA.NDBC:JKYF1:1,2019-04-07T11:00:00Z,25.0530,-80.9040,1.0,26.34,11111222 
ENP,ioos.station.NOAA.NDBC:JKYF1:1,2019-04-07T12:00:00Z,25.0530,-80.9040,1.0,26.21,11111222 
ENP,ioos.station.NOAA.NDBC:JKYF1:1,2019-04-07T13:00:00Z,25.0530,-80.9040,1.0,26.15,11111222 
ENP,ioos.station.NOAA.NDBC:JKYF1:1,2019-04-07T14:00:00Z,25.0530,-80.9040,1.0,26.14,11111222 
ENP,ioos.station.NOAA.NDBC:JKYF1:1,2019-04-07T15:00:00Z,25.0530,-80.9040,1.0,26.46,11111222 
ENP,ioos.station.NOAA.NDBC:JKYF1:1,2019-04-07T16:00:00Z,25.0530,-80.9040,1.0,27.04,11111222 
ENP,ioos.station.NOAA.NDBC:JKYF1:1,2019-04-07T17:00:00Z,25.0530,-80.9040,1.0,27.68,11111222 
ENP,ioos.station.NOAA.NDBC:JKYF1:1,2019-04-22T15:00:00Z,25.0530,-80.9040,1.0,23.92,11111222 
ENP,ioos.station.NOAA.NDBC:JKYF1:1,2019-04-22T16:00:00Z,25.0530,-80.9040,1.0,24.65,11111222 
ENP,ioos.station.NOAA.NDBC:JKYF1:1,2019-04-22T17:00:00Z,25.0530,-80.9040,1.0,25.57,11111222 
ENP,ioos.station.NOAA.NDBC:JKYF1:1,2019-04-22T18:00:00Z,25.0530,-80.9040,1.0,26.47,11111222 
ENP,ioos.station.NOAA.NDBC:JKYF1:1,2019-04-22T19:00:00Z,25.0530,-80.9040,1.0,27.25,11111222 
ENP,ioos.station.NOAA.NDBC:JKYF1:1,2019-04-22T20:00:00Z,25.0530,-80.9040,1.0,27.51,11111222 
ENP,ioos.station.NOAA.NDBC:JKYF1:1,2019-04-22T21:00:00Z,25.0530,-80.9040,1.0,27.34,11111222 
ENP,ioos.station.NOAA.NDBC:JKYF1:1,2019-04-22T22:00:00Z,25.0530,-80.9040,1.0,26.71,11111222 
ENP,ioos.station.NOAA.NDBC:JKYF1:1,2019-04-22T23:00:00Z,25.0530,-80.9040,1.0,26.39,11111222 
ENP,ioos.station.NOAA.NDBC:JKYF1:1,2019-04-23T00:00:00Z,25.0530,-80.9040,1.0,26.2,11111222 
ENP,ioos.station.NOAA.NDBC:JKYF1:1,2019-04-23T01:00:00Z,25.0530,-80.9040,1.0,25.92,11111222 
ENP,ioos.station.NOAA.NDBC:JKYF1:1,2019-04-23T02:00:00Z,25.0530,-80.9040,1.0,25.54,11111222 
ENP,ioos.station.NOAA.NDBC:JKYF1:1,2019-04-23T03:00:00Z,25.0530,-80.9040,1.0,25.3,11111222 
ENP,ioos.station.NOAA.NDBC:JKYF1:1,2019-04-23T04:00:00Z,25.0530,-80.9040,1.0,24.92,11111222 
ENP,ioos.station.NOAA.NDBC:JKYF1:1,2019-04-23T05:00:00Z,25.0530,-80.9040,1.0,24.49,11111222 
ENP,ioos.station.NOAA.NDBC:JKYF1:1,2019-04-23T07:00:00Z,25.0530,-80.9040,1.0,23.5,11111222 
ENP,ioos.station.NOAA.NDBC:JKYF1:1,2019-04-23T08:00:00Z,25.0530,-80.9040,1.0,23.19,11111222 
ENP,ioos.station.NOAA.NDBC:JKYF1:1,2019-04-23T09:00:00Z,25.0530,-80.9040,1.0,22.9,11111222 
ENP,ioos.station.NOAA.NDBC:JKYF1:1,2019-04-23T10:00:00Z,25.0530,-80.9040,1.0,22.93,11111222 
ENP,ioos.station.NOAA.NDBC:JKYF1:1,2019-04-23T11:00:00Z,25.0530,-80.9040,1.0,23.2,11111222 
ENP,ioos.station.NOAA.NDBC:JKYF1:1,2019-04-23T12:00:00Z,25.0530,-80.9040,1.0,23.42,11111222 
ENP,ioos.station.NOAA.NDBC:JKYF1:1,2019-04-23T13:00:00Z,25.0530,-80.9040,1.0,23.5,11111222 
ENP,ioos.station.NOAA.NDBC:JKYF1:1,2019-04-23T14:00:00Z,25.0530,-80.9040,1.0,23.59,11111222 
ENP,ioos.station.NOAA.NDBC:JKYF1:1,2019-04-23T15:00:00Z,25.0530,-80.9040,1.0,23.77,11111222 
ENP,ioos.station.NOAA.NDBC:JKYF1:1,2019-04-23T16:00:00Z,25.0530,-80.9040,1.0,24.25,11111222 
ENP,ioos.station.NOAA.NDBC:JKYF1:1,2019-04-23T17:00:00Z,25.0530,-80.9040,1.0,25.1,11111222 
ENP,ioos.station.NOAA.NDBC:JKYF1:1,2019-04-23T18:00:00Z,25.0530,-80.9040,1.0,26.1,11111222 
ENP,ioos.station.NOAA.NDBC:JKYF1:1,2019-04-23T19:00:00Z,25.0530,-80.9040,1.0,26.97,11111222 
ENP,ioos.station.NOAA.NDBC:JKYF1:1,2019-04-23T20:00:00Z,25.0530,-80.9040,1.0,27.6,11111222 
ENP,ioos.station.NOAA.NDBC:JKYF1:1,2019-04-23T21:00:00Z,25.0530,-80.9040,1.0,27.46,11111222 
ENP,ioos.station.NOAA.NDBC:JKYF1:1,2019-04-23T22:00:00Z,25.0530,-80.9040,1.0,26.79,11111222 
ENP,ioos.station.NOAA.NDBC:JKYF1:1,2019-04-23T23:00:00Z,25.0530,-80.9040,1.0,26.35,11111222 
ENP,ioos.station.NOAA.NDBC:JKYF1:1,2019-04-24T00:00:00Z,25.0530,-80.9040,1.0,26.2,11111222 
ENP,ioos.station.NOAA.NDBC:JKYF1:1,2019-04-24T01:00:00Z,25.0530,-80.9040,1.0,25.95,11111222 
ENP,ioos.station.NOAA.NDBC:JKYF1:1,2019-04-24T02:00:00Z,25.0530,-80.9040,1.0,25.7,11111222 
ENP,ioos.station.NOAA.NDBC:JKYF1:1,2019-04-24T03:00:00Z,25.0530,-80.9040,1.0,25.6,11111222 
ENP,ioos.station.NOAA.NDBC:JKYF1:1,2019-04-24T04:00:00Z,25.0530,-80.9040,1.0,25.38,11111222 
ENP,ioos.station.NOAA.NDBC:JKYF1:1,2019-04-24T05:00:00Z,25.0530,-80.9040,1.0,25.03,11111222 
ENP,ioos.station.NOAA.NDBC:JKYF1:1,2019-04-24T07:00:00Z,25.0530,-80.9040,1.0,24.3,11111222 
ENP,ioos.station.NOAA.NDBC:JKYF1:1,2019-04-24T08:00:00Z,25.0530,-80.9040,1.0,23.95,11111222 
ENP,ioos.station.NOAA.NDBC:JKYF1:1,2019-04-24T09:00:00Z,25.0530,-80.9040,1.0,23.62,11111222 
ENP,ioos.station.NOAA.NDBC:JKYF1:1,2019-04-24T10:00:00Z,25.0530,-80.9040,1.0,23.44,11111222 
ENP,ioos.station.NOAA.NDBC:JKYF1:1,2019-04-24T11:00:00Z,25.0530,-80.9040,1.0,23.48,11111222 
ENP,ioos.station.NOAA.NDBC:JKYF1:1,2019-04-24T12:00:00Z,25.0530,-80.9040,1.0,23.64,11111222 
ENP,ioos.station.NOAA.NDBC:JKYF1:1,2019-04-24T13:00:00Z,25.0530,-80.9040,1.0,23.86,11111222 
ENP,ioos.station.NOAA.NDBC:JKYF1:1,2019-04-24T14:00:00Z,25.0530,-80.9040,1.0,24.11,11111222 
ENP,ioos.station.NOAA.NDBC:JKYF1:1,2019-04-24T15:00:00Z,25.0530,-80.9040,1.0,24.54,11111222 
ENP,ioos.station.NOAA.NDBC:JKYF1:1,2019-04-24T16:00:00Z,25.0530,-80.9040,1.0,24.87,11111222 
ENP,ioos.station.NOAA.NDBC:JKYF1:1,2019-04-24T17:00:00Z,25.0530,-80.9040,1.0,25.47,11111222 
ENP,ioos.station.NOAA.NDBC:JKYF1:1,2019-04-24T18:00:00Z,25.0530,-80.9040,1.0,26.37,11111222 
ENP,ioos.station.NOAA.NDBC:JKYF1:1,2019-04-24T19:00:00Z,25.0530,-80.9040,1.0,27.34,11111222 
ENP,ioos.station.NOAA.NDBC:JKYF1:1,2019-04-24T20:00:00Z,25.0530,-80.9040,1.0,28.27,11111222 
ENP,ioos.station.NOAA.NDBC:JKYF1:1,2019-04-24T21:00:00Z,25.0530,-80.9040,1.0,28.51,11111222 
ENP,ioos.station.NOAA.NDBC:JKYF1:1,2019-04-24T22:00:00Z,25.0530,-80.9040,1.0,27.61,11111222 
ENP,ioos.station.NOAA.NDBC:JKYF1:1,2019-04-24T23:00:00Z,25.0530,-80.9040,1.0,26.93,11111222 
ENP,ioos.station.NOAA.NDBC:JKYF1:1,2019-04-25T00:00:00Z,25.0530,-80.9040,1.0,26.55,11111222 
ENP,ioos.station.NOAA.NDBC:JKYF1:1,2019-04-25T01:00:00Z,25.0530,-80.9040,1.0,26.38,11111222 
ENP,ioos.station.NOAA.NDBC:JKYF1:1,2019-04-25T02:00:00Z,25.0530,-80.9040,1.0,26.36,11111222 
ENP,ioos.station.NOAA.NDBC:JKYF1:1,2019-04-25T03:00:00Z,25.0530,-80.9040,1.0,26.2,11111222 
ENP,ioos.station.NOAA.NDBC:JKYF1:1,2019-04-25T04:00:00Z,25.0530,-80.9040,1.0,26.0,11111222 
ENP,ioos.station.NOAA.NDBC:JKYF1:1,2019-04-25T05:00:00Z,25.0530,-80.9040,1.0,25.9,11111222 
ENP,ioos.station.NOAA.NDBC:JKYF1:1,2019-04-25T07:00:00Z,25.0530,-80.9040,1.0,25.5,11111222 
ENP,ioos.station.NOAA.NDBC:JKYF1:1,2019-04-25T08:00:00Z,25.0530,-80.9040,1.0,25.27,11111222 
ENP,ioos.station.NOAA.NDBC:JKYF1:1,2019-04-25T09:00:00Z,25.0530,-80.9040,1.0,25.07,11111222 
ENP,ioos.station.NOAA.NDBC:JKYF1:1,2019-04-25T10:00:00Z,25.0530,-80.9040,1.0,24.86,11111222 
ENP,ioos.station.NOAA.NDBC:JKYF1:1,2019-04-25T11:00:00Z,25.0530,-80.9040,1.0,24.6,11111222 
ENP,ioos.station.NOAA.NDBC:JKYF1:1,2019-04-25T12:00:00Z,25.0530,-80.9040,1.0,24.53,11111222 
ENP,ioos.station.NOAA.NDBC:JKYF1:1,2019-04-25T13:00:00Z,25.0530,-80.9040,1.0,24.73,11111222 
ENP,ioos.station.NOAA.NDBC:JKYF1:1,2019-04-25T14:00:00Z,25.0530,-80.9040,1.0,25.0,11111222 
ENP,ioos.station.NOAA.NDBC:JKYF1:1,2019-04-25T15:00:00Z,25.0530,-80.9040,1.0,25.34,11111222 
ENP,ioos.station.NOAA.NDBC:JKYF1:1,2019-04-25T16:00:00Z,25.0530,-80.9040,1.0,25.91,11111222 
ENP,ioos.station.NOAA.NDBC:JKYF1:1,2019-04-25T17:00:00Z,25.0530,-80.9040,1.0,26.56,11111222 
ENP,ioos.station.NOAA.NDBC:JKYF1:1,2019-04-25T18:00:00Z,25.0530,-80.9040,1.0,27.05,11111222 
ENP,ioos.station.NOAA.NDBC:JKYF1:1,2019-04-25T19:00:00Z,25.0530,-80.9040,1.0,27.83,11111222 
ENP,ioos.station.NOAA.NDBC:JKYF1:1,2019-04-25T20:00:00Z,25.0530,-80.9040,1.0,28.62,11111222 
ENP,ioos.station.NOAA.NDBC:JKYF1:1,2019-04-25T21:00:00Z,25.0530,-80.9040,1.0,29.97,11111222 
ENP,ioos.station.NOAA.NDBC:JKYF1:1,2019-04-25T22:00:00Z,25.0530,-80.9040,1.0,29.2,11111222 
ENP,ioos.station.NOAA.NDBC:JKYF1:1,2019-04-25T23:00:00Z,25.0530,-80.9040,1.0,28.3,11111222 
ENP,ioos.station.NOAA.NDBC:JKYF1:1,2019-04-26T00:00:00Z,25.0530,-80.9040,1.0,27.69,11111222 
ENP,ioos.station.NOAA.NDBC:JKYF1:1,2019-04-26T01:00:00Z,25.0530,-80.9040,1.0,27.49,11111222 
ENP,ioos.station.NOAA.NDBC:JKYF1:1,2019-04-26T02:00:00Z,25.0530,-80.9040,1.0,27.3,11111222 
ENP,ioos.station.NOAA.NDBC:JKYF1:1,2019-04-26T03:00:00Z,25.0530,-80.9040,1.0,27.3,11111222 
ENP,ioos.station.NOAA.NDBC:JKYF1:1,2019-04-26T04:00:00Z,25.0530,-80.9040,1.0,27.09,11111222 
ENP,ioos.station.NOAA.NDBC:JKYF1:1,2019-04-26T05:00:00Z,25.0530,-80.9040,1.0,26.96,11111222 
ENP,ioos.station.NOAA.NDBC:JKYF1:1,2019-04-26T09:00:00Z,25.0530,-80.9040,1.0,26.4,11111222 
ENP,ioos.station.NOAA.NDBC:JKYF1:1,2019-04-26T10:00:00Z,25.0530,-80.9040,1.0,26.17,11111222 
ENP,ioos.station.NOAA.NDBC:JKYF1:1,2019-04-26T11:00:00Z,25.0530,-80.9040,1.0,25.9,11111222 
ENP,ioos.station.NOAA.NDBC:JKYF1:1,2019-04-26T12:00:00Z,25.0530,-80.9040,1.0,25.35,11111222 
ENP,ioos.station.NOAA.NDBC:JKYF1:1,2019-04-26T13:00:00Z,25.0530,-80.9040,1.0,25.63,11111222 
ENP,ioos.station.NOAA.NDBC:JKYF1:1,2019-04-26T14:00:00Z,25.0530,-80.9040,1.0,26.02,11111222 
ENP,ioos.station.NOAA.NDBC:JKYF1:1,2019-04-26T15:00:00Z,25.0530,-80.9040,1.0,26.41,11111222 
ENP,ioos.station.NOAA.NDBC:JKYF1:1,2019-04-26T16:00:00Z,25.0530,-80.9040,1.0,26.77,11111222 
ENP,ioos.station.NOAA.NDBC:JKYF1:1,2019-04-26T17:00:00Z,25.0530,-80.9040,1.0,27.22,11111222 
ENP,ioos.station.NOAA.NDBC:JKYF1:1,2019-04-26T18:00:00Z,25.0530,-80.9040,1.0,27.96,11111222 
ENP,ioos.station.NOAA.NDBC:JKYF1:1,2019-04-26T19:00:00Z,25.0530,-80.9040,1.0,28.53,11111222 
ENP,ioos.station.NOAA.NDBC:JKYF1:1,2019-04-26T20:00:00Z,25.0530,-80.9040,1.0,29.02,11111222 